User: anonymous   Login
Location: Unspecified
(0.0000°N, 0.0000°E)
Time: 12:37:29
(UTC+00:00)
Language:

A-11 Canister half - Orbit

View from above orbital plane
View from above orbital plane
View from above satellite
View from above satellite

Ground track
Ground track

The orbit data is extracted from the following two-line orbital elements,

1 00053U 60009E   14303.57639542 -.00000085  00000-0  00000+0 0  5949
2 00053 047.2743 121.5880 0100209 123.3517 282.7666 12.17152847418048
Epoch (UTC): 30 October 2014 13:50:00
Eccentricity: 0.0100209
inclination: 47.2743°
perigee height: 1525 km
apogee height: 1685 km
right ascension of ascending node: 121.5880°
argument of perigee: 123.3517°
revolutions per day: 12.17152847
mean anomaly at epoch: 282.7666°
orbit number at epoch: 41804

The dashed part of the orbit path shows where the satellite is in the earth's shadow,  

DLR